Time,TemperatureF,DewpointF,PressureIn,WindDirection,WindDirectionDegrees,WindSpeedMPH,WindSpeedGustMPH,Humidity,HourlyPrecipIn,Conditions,Clouds,dailyrainin,SolarRadiationWatts/m^2,SoftwareType,DateUTC
2013-06-19 00:01:00,41.0,27.0,-100.00,East,86,0.0,0.0,58,0.00,,,0.00,0.000000,,2013-06-19 07:01:00,
2013-06-19 00:22:00,37.0,25.0,-100.00,ESE,117,0.0,0.0,62,0.00,,,0.00,0.000000,,2013-06-19 07:22:00,
2013-06-19 01:02:00,37.0,26.0,-100.00,ENE,73,0.0,3.0,63,-99.99,,,0.00,0.000000,,2013-06-19 08:02:00,
2013-06-19 01:22:00,37.0,26.0,-100.00,ENE,73,0.0,3.0,63,-99.99,,,0.00,0.000000,,2013-06-19 08:22:00,
2013-06-19 01:43:00,37.0,26.0,-100.00,ENE,73,0.0,3.0,63,-99.99,,,0.00,0.000000,,2013-06-19 08:43:00,
2013-06-19 01:53:00,37.0,26.0,-100.00,ENE,73,0.0,3.0,63,-99.99,,,0.00,0.000000,,2013-06-19 08:53:00,
2013-06-19 05:22:00,33.0,16.0,-100.00,East,79,0.0,3.0,50,-99.99,,,0.00,0.000000,,2013-06-19 12:22:00,
2013-06-19 07:22:00,34.0,15.0,-100.00,NE,52,0.0,0.0,46,-99.99,,,0.00,22.000000,,2013-06-19 14:22:00,
2013-06-19 08:33:00,42.0,19.0,-100.00,South,173,0.0,0.0,39,-99.99,,,0.00,114.000000,,2013-06-19 15:33:00,
2013-06-19 08:43:00,42.0,19.0,-100.00,South,173,0.0,0.0,39,-99.99,,,0.00,114.000000,,2013-06-19 15:43:00,
2013-06-19 09:02:00,56.0,20.0,-100.00,WSW,248,0.0,3.0,24,-99.99,,,0.00,608.000000,,2013-06-19 16:02:00,
2013-06-19 09:34:00,56.0,20.0,-100.00,WSW,248,0.0,3.0,24,-99.99,,,0.00,608.000000,,2013-06-19 16:34:00,
2013-06-19 09:43:00,56.0,20.0,-100.00,WSW,248,0.0,3.0,24,-99.99,,,0.00,608.000000,,2013-06-19 16:43:00,
2013-06-19 09:52:00,56.0,20.0,-100.00,WSW,248,0.0,3.0,24,-99.99,,,0.00,608.000000,,2013-06-19 16:52:00,
2013-06-19 10:34:00,59.0,17.0,-100.00,NW,307,3.0,7.0,19,0.00,,,0.00,813.000000,,2013-06-19 17:34:00,
2013-06-19 10:43:00,59.0,17.0,-100.00,NW,307,3.0,7.0,19,0.00,,,0.00,813.000000,,2013-06-19 17:43:00,
2013-06-19 10:53:00,59.0,17.0,-100.00,NW,307,3.0,7.0,19,0.00,,,0.00,813.000000,,2013-06-19 17:53:00,
2013-06-19 11:01:00,59.0,17.0,-100.00,NW,307,3.0,7.0,19,0.00,,,0.00,813.000000,,2013-06-19 18:01:00,
2013-06-19 11:24:00,63.0,21.0,-100.00,NNW,333,2.0,7.0,20,0.00,,,0.00,958.000000,,2013-06-19 18:24:00,
2013-06-19 11:33:00,63.0,21.0,-100.00,NNW,333,2.0,7.0,20,0.00,,,0.00,958.000000,,2013-06-19 18:33:00,
2013-06-19 11:44:00,63.0,21.0,-100.00,NNW,333,2.0,7.0,20,0.00,,,0.00,958.000000,,2013-06-19 18:44:00,
2013-06-19 11:53:00,63.0,21.0,-100.00,NNW,333,2.0,7.0,20,0.00,,,0.00,958.000000,,2013-06-19 18:53:00,
2013-06-19 12:01:00,63.0,21.0,-100.00,NNW,333,2.0,7.0,20,0.00,,,0.00,958.000000,,2013-06-19 19:01:00,
2013-06-19 12:02:00,62.0,24.0,-100.00,NW,323,3.0,10.0,23,0.00,,,0.00,978.000000,,2013-06-19 19:02:00,
2013-06-19 12:22:00,62.0,24.0,-100.00,NW,323,3.0,10.0,23,0.00,,,0.00,978.000000,,2013-06-19 19:22:00,
2013-06-19 12:32:00,62.0,24.0,-100.00,NW,323,3.0,10.0,23,0.00,,,0.00,978.000000,,2013-06-19 19:32:00,
2013-06-19 12:43:00,62.0,24.0,-100.00,NW,323,3.0,10.0,23,0.00,,,0.00,978.000000,,2013-06-19 19:43:00,
2013-06-19 12:53:00,62.0,24.0,-100.00,NW,323,3.0,10.0,23,0.00,,,0.00,978.000000,,2013-06-19 19:53:00,
2013-06-19 13:02:00,65.0,27.0,-100.00,North,351,5.0,14.0,24,0.00,,,0.00,1117.000000,,2013-06-19 20:02:00,
2013-06-19 13:22:00,65.0,27.0,-100.00,North,351,5.0,14.0,24,0.00,,,0.00,1117.000000,,2013-06-19 20:22:00,
2013-06-19 13:33:00,65.0,27.0,-100.00,North,351,5.0,14.0,24,0.00,,,0.00,1117.000000,,2013-06-19 20:33:00,
2013-06-19 13:42:00,65.0,27.0,-100.00,North,351,5.0,14.0,24,0.00,,,0.00,1117.000000,,2013-06-19 20:42:00,
2013-06-19 13:52:00,65.0,27.0,-100.00,North,351,5.0,14.0,24,0.00,,,0.00,1117.000000,,2013-06-19 20:52:00,
2013-06-19 14:22:00,64.0,23.0,-100.00,NW,321,5.0,12.0,21,0.00,,,0.00,1143.000000,,2013-06-19 21:22:00,
2013-06-19 14:33:00,64.0,23.0,-100.00,NW,321,5.0,12.0,21,0.00,,,0.00,1143.000000,,2013-06-19 21:33:00,
2013-06-19 14:44:00,64.0,23.0,-100.00,NW,321,5.0,12.0,21,0.00,,,0.00,1143.000000,,2013-06-19 21:44:00,
2013-06-19 14:52:00,64.0,23.0,-100.00,NW,321,5.0,12.0,21,0.00,,,0.00,1143.000000,,2013-06-19 21:52:00,
2013-06-19 15:01:00,64.0,23.0,-100.00,NW,321,5.0,12.0,21,0.00,,,0.00,1143.000000,,2013-06-19 22:01:00,
2013-06-19 15:02:00,67.0,26.0,-100.00,NNW,333,4.0,12.0,21,0.00,,,0.00,1084.000000,,2013-06-19 22:02:00,
2013-06-19 15:34:00,67.0,26.0,-100.00,NNW,333,4.0,12.0,21,0.00,,,0.00,1084.000000,,2013-06-19 22:34:00,
2013-06-19 15:43:00,67.0,26.0,-100.00,NNW,333,4.0,12.0,21,0.00,,,0.00,1084.000000,,2013-06-19 22:43:00,
2013-06-19 15:53:00,67.0,26.0,-100.00,NNW,333,4.0,12.0,21,0.00,,,0.00,1084.000000,,2013-06-19 22:53:00,
2013-06-19 16:34:00,66.0,26.0,-100.00,NNE,21,4.0,14.0,22,0.00,,,0.00,965.000000,,2013-06-19 23:34:00,
2013-06-19 16:43:00,66.0,26.0,-100.00,NNE,21,4.0,14.0,22,0.00,,,0.00,965.000000,,2013-06-19 23:43:00,
2013-06-19 16:52:00,66.0,26.0,-100.00,NNE,21,4.0,14.0,22,0.00,,,0.00,965.000000,,2013-06-19 23:52:00,
2013-06-19 17:01:00,66.0,26.0,-100.00,NNE,21,4.0,14.0,22,0.00,,,0.00,965.000000,,2013-06-20 00:01:00,
2013-06-19 17:34:00,64.0,24.0,-100.00,NW,317,4.0,13.0,22,0.00,,,0.00,798.000000,,2013-06-20 00:34:00,
2013-06-19 17:44:00,64.0,24.0,-100.00,NW,317,4.0,13.0,22,0.00,,,0.00,798.000000,,2013-06-20 00:44:00,
2013-06-19 17:52:00,64.0,24.0,-100.00,NW,317,4.0,13.0,22,0.00,,,0.00,798.000000,,2013-06-20 00:52:00,
2013-06-19 18:01:00,64.0,24.0,-100.00,NW,317,4.0,13.0,22,0.00,,,0.00,798.000000,,2013-06-20 01:01:00,
2013-06-19 18:02:00,61.0,24.0,-100.00,West,270,3.0,13.0,24,0.00,,,0.00,557.000000,,2013-06-20 01:02:00,
2013-06-19 18:22:00,61.0,24.0,-100.00,West,270,3.0,13.0,24,0.00,,,0.00,557.000000,,2013-06-20 01:22:00,
2013-06-19 18:33:00,61.0,24.0,-100.00,West,270,3.0,13.0,24,0.00,,,0.00,557.000000,,2013-06-20 01:33:00,
2013-06-19 18:44:00,61.0,24.0,-100.00,West,270,3.0,13.0,24,0.00,,,0.00,557.000000,,2013-06-20 01:44:00,
2013-06-19 18:52:00,61.0,24.0,-100.00,West,270,3.0,13.0,24,0.00,,,0.00,557.000000,,2013-06-20 01:52:00,
2013-06-19 19:02:00,59.0,26.0,-100.00,NW,316,2.0,11.0,28,0.00,,,0.00,91.000000,,2013-06-20 02:02:00,
2013-06-19 19:24:00,59.0,26.0,-100.00,NW,316,2.0,11.0,28,0.00,,,0.00,91.000000,,2013-06-20 02:24:00,
2013-06-19 19:34:00,59.0,26.0,-100.00,NW,316,2.0,11.0,28,0.00,,,0.00,91.000000,,2013-06-20 02:34:00,
2013-06-19 19:43:00,59.0,26.0,-100.00,NW,316,2.0,11.0,28,0.00,,,0.00,91.000000,,2013-06-20 02:43:00,
2013-06-19 19:52:00,59.0,26.0,-100.00,NW,316,2.0,11.0,28,0.00,,,0.00,91.000000,,2013-06-20 02:52:00,
2013-06-19 20:22:00,54.0,26.0,-100.00,ESE,104,0.0,8.0,34,0.00,,,0.00,74.000000,,2013-06-20 03:22:00,
2013-06-19 20:33:00,54.0,26.0,-100.00,ESE,104,0.0,8.0,34,0.00,,,0.00,74.000000,,2013-06-20 03:33:00,
2013-06-19 20:43:00,54.0,26.0,-100.00,ESE,104,0.0,8.0,34,0.00,,,0.00,74.000000,,2013-06-20 03:43:00,
2013-06-19 20:54:00,54.0,26.0,-100.00,ESE,104,0.0,8.0,34,0.00,,,0.00,74.000000,,2013-06-20 03:54:00,
2013-06-19 21:01:00,54.0,26.0,-100.00,ESE,104,0.0,8.0,34,0.00,,,0.00,74.000000,,2013-06-20 04:01:00,
2013-06-19 21:23:00,48.0,27.0,-100.00,East,81,0.0,2.0,43,0.00,,,0.00,6.000000,,2013-06-20 04:23:00,
2013-06-19 21:34:00,48.0,27.0,-100.00,East,81,0.0,2.0,43,0.00,,,0.00,6.000000,,2013-06-20 04:34:00,
2013-06-19 21:43:00,48.0,27.0,-100.00,East,81,0.0,2.0,43,0.00,,,0.00,6.000000,,2013-06-20 04:43:00,
2013-06-19 21:54:00,48.0,27.0,-100.00,East,81,0.0,2.0,43,0.00,,,0.00,6.000000,,2013-06-20 04:54:00,
2013-06-19 22:01:00,48.0,27.0,-100.00,East,81,0.0,2.0,43,0.00,,,0.00,6.000000,,2013-06-20 05:01:00,
2013-06-19 22:22:00,43.0,25.0,-100.00,ENE,77,0.0,0.0,49,0.00,,,0.00,0.000000,,2013-06-20 05:22:00,
2013-06-19 22:33:00,43.0,25.0,-100.00,ENE,77,0.0,0.0,49,0.00,,,0.00,0.000000,,2013-06-20 05:33:00,
2013-06-19 22:44:00,43.0,25.0,-100.00,ENE,77,0.0,0.0,49,0.00,,,0.00,0.000000,,2013-06-20 05:44:00,
2013-06-19 22:53:00,43.0,25.0,-100.00,ENE,77,0.0,0.0,49,0.00,,,0.00,0.000000,,2013-06-20 05:53:00,
2013-06-19 23:01:00,43.0,25.0,-100.00,ENE,77,0.0,0.0,49,0.00,,,0.00,0.000000,,2013-06-20 06:01:00,